Regional Weather Roundup
Issued by NWS

Home | Current Version | Previous Version | Graphics & Text | Print | Product List | Glossary Off
Versions: 1 2 3 4 5 6 7 8 9 10 11 12 13 14 15 16 17 18 19 20 21 22 23 24 25 26 27 28 29 30 31 32 33 34 35 36 37 38 39 40 41 42 43 44 45 46 47 48 49 50

000
ASUS43 KDTX 021210
RWRMI
MICHIGAN HOURLY REGIONAL WEATHER ROUNDUP
NATIONAL WEATHER SERVICE DETROIT/PONTIAC MI
800 AM EDT TUE JUN 02 2015

NOTE: "FAIR" INDICATES FEW OR NO CLOUDS BELOW 12,000 FEET WITH NO
SIGNIFICANT WEATHER AND/OR OBSTRUCTION TO VISIBILITY.

MIZ047>049-052>055-059>063-066>070-074>076-081>083-021300-
SOUTHEAST LOWER MICHIGAN

CITY           SKY/WX    TMP DP  RH WIND       PRES   REMARKS
ADRIAN         SUNNY     50  42  74 NE6       30.21R
6HR MIN TEMP:  43; 6HR MAX TEMP:  50;

ALMA           SUNNY     44  44  97 CALM      30.26R
ANN ARBOR      SUNNY     52  43  71 NE3       30.21R
BAD AXE        SUNNY     49  43  79 NE5       30.24R
CARO           SUNNY     45  42  90 CALM      30.23R
DETROIT CITY   SUNNY     50  39  66 N6        30.22R
6HR MIN TEMP:  45; 6HR MAX TEMP:  50;

DETROIT        MOSUNNY   51  40  65 N6        30.21R
6HR MIN TEMP:  46; 6HR MAX TEMP:  51;

FLINT          MOSUNNY   51  39  63 NE3       30.24R
6HR MIN TEMP:  39; 6HR MAX TEMP:  51;

GROSSE ILE     SUNNY     54  45  71 N3        30.20R
HILLSDALE      SUNNY     51  44  77 NE5       30.20R
HOWELL         MOSUNNY   46  40  78 CALM      30.23R

CITY           SKY/WX    TMP DP  RH WIND       PRES   REMARKS
JACKSON        SUNNY     50  42  74 N6        30.22R
6HR MIN TEMP:  41; 6HR MAX TEMP:  50;

LAMBERTVILLE   SUNNY     52  43  71 N3        30.20S
LANSING        SUNNY     49  41  74 CALM      30.25R
6HR MIN TEMP:  39; 6HR MAX TEMP:  49;

LAPEER         FAIR      47  38  72 CALM      30.23R
MASON          MOSUNNY   46  41  85 NE3       30.23R
MONROE         SUNNY     50  43  76 N5        30.19R
MT. CLEMENS    MOSUNNY   49  41  74 N3        30.19R
6HR MIN TEMP:  43; 6HR MAX TEMP:  49;

PONTIAC        MOSUNNY   51  40  65 N3        30.21R
6HR MIN TEMP:  42; 6HR MAX TEMP:  51;

PORT HOPE        N/A     52  40  63 CALM      30.22R
6HR MIN TEMP:  42; 6HR MAX TEMP:  52;

PORT HURON     SUNNY     48  43  81 N3        30.22R
TRI CITIES     SUNNY     49  40  71 CALM      30.25R
6HR MIN TEMP:  41; 6HR MAX TEMP:  49;

MIDLAND        FAIR      43  40  88 CALM      30.25R
TROY           SUNNY     51  39  63 NE5       30.23R
SAGINAW HB     SUNNY     46  46 100 CALM      30.25R
$$
MIZ043>046-050>051-056>058-064>065-071>073-077>080-021300-
SOUTHWEST LOWER MICHIGAN

CITY           SKY/WX    TMP DP  RH WIND       PRES   REMARKS
BATTLE CREEK   SUNNY     50  43  77 NE3       30.23R
6HR MIN TEMP:  42; 6HR MAX TEMP:  50;

BENTON HARBOR  SUNNY     51  48  89 CALM      30.21R
6HR MIN TEMP:  40; 6HR MAX TEMP:  51;

BIG RAPIDS     SUNNY     43  38  83 CALM      30.24S
6HR MIN TEMP:  37; 6HR MAX TEMP:  43;

COLDWATER      SUNNY     49  44  84 CALM      30.21R
6HR MIN TEMP:  41; 6HR MAX TEMP:  49;

FREMONT        FAIR      48  36  61 E5        30.24R
HOLLAND        SUNNY     49  42  77 E5        30.24R
6HR MIN TEMP:  40; 6HR MAX TEMP:  49;

GRAND RAPIDS   MOSUNNY   47  41  80 E5        30.24R
6HR MIN TEMP:  41; 6HR MAX TEMP:  47;

IONIA          FAIR      47  41  80 CALM      30.24R
KALAMAZOO      SUNNY     50  45  83 NE3       30.22R
6HR MIN TEMP:  42; 6HR MAX TEMP:  50;

LUDINGTON      SUNNY     48  41  76 CALM      30.23S
6HR MIN TEMP:  38; 6HR MAX TEMP:  51;

MARSHALL       SUNNY     49  43  80 CALM      30.22R
MOUNT PLEASANT SUNNY     44  42  91 CALM      30.24R
6HR MIN TEMP:  35; 6HR MAX TEMP:  44;

MUSKEGON       MOSUNNY   48  39  71 E5        30.24R
6HR MIN TEMP:  41; 6HR MAX TEMP:  50;

SOUTH HAVEN    SUNNY     50  46  84 CALM      30.22R
$$
MIZ016>042-021300-
NORTHERN LOWER MICHIGAN

CITY           SKY/WX    TMP DP  RH WIND       PRES   REMARKS
ALPENA         SUNNY     47  39  74 CALM      30.26R
6HR MIN TEMP:  35; 6HR MAX TEMP:  47;

BEAVER ISLAND  SUNNY     47  40  77 CALM      30.25R
6HR MIN TEMP:  33; 6HR MAX TEMP:  47;

BELLAIRE       SUNNY     42  37  81 CALM      30.25S
6HR MIN TEMP:  33; 6HR MAX TEMP:  42;

CADILLAC       SUNNY     44  37  76 CALM      30.23S
CHARLEVOIX     SUNNY     48  36  63 SE5       30.27S
6HR MIN TEMP:  39; 6HR MAX TEMP:  48;

FRANKFORT      SUNNY     49  38  63 CALM      30.23S
GAYLORD        SUNNY     45  39  79 CALM      30.25R
6HR MIN TEMP:  33; 6HR MAX TEMP:  45;

GRAYLING       SUNNY     39  35  83 CALM      30.26R
6HR MIN TEMP:  28; 6HR MAX TEMP:  39;

HARBOR SPRINGS SUNNY     46  36  69 CALM      30.25S
HOUGHTON LAKE  SUNNY     42  39  89 CALM      30.25R
6HR MIN TEMP:  32; 6HR MAX TEMP:  42;

MANISTEE       SUNNY     45  37  76 E5        30.24S
OSCODA         SUNNY     47  38  70 CALM      30.24R
PELLSTON       SUNNY     44  38  79 CALM      30.25S
6HR MIN TEMP:  29; 6HR MAX TEMP:  44;

ROGERS CITY    SUNNY     50  41  70 CALM      30.26R
TRAVERSE CITY  SUNNY     48  42  80 CALM      30.23S
6HR MIN TEMP:  38; 6HR MAX TEMP:  48;

$$
MIZ007>008-015-021300-
EASTERN UPPER MICHIGAN

CITY           SKY/WX    TMP DP  RH WIND       PRES   REMARKS
KINROSS        SUNNY     50  37  62 CALM      30.24S
6HR MIN TEMP:  39; 6HR MAX TEMP:  50;

MACKINAC ISLAN SUNNY     51  40  66 S3        30.25R
6HR MIN TEMP:  41; 6HR MAX TEMP:  51;

NEWBERRY       SUNNY     50  39  67 CALM      30.24R
S. S. MARIE    SUNNY     47  39  74 CALM      30.24R
6HR MIN TEMP:  39; 6HR MAX TEMP:  47;

MUNISING         N/A     50  36  58 S9        30.20S
6HR MIN TEMP:  36; 6HR MAX TEMP:  50;

$$
MIZ004>006-011>014-085-021300-
CENTRAL UPPER MICHIGAN

CITY           SKY/WX    TMP DP  RH WIND       PRES   REMARKS
MANISTIQUE     SUNNY     51  41  69 S3        30.24R
6HR MIN TEMP:  32; 6HR MAX TEMP:  51;

ESCANABA       SUNNY     45  39  81 CALM      30.22R
6HR MIN TEMP:  34; 6HR MAX TEMP:  45;

MENOMINEE      SUNNY     45  37  76 CALM      30.21S
6HR MIN TEMP:  37; 6HR MAX TEMP:  45;

SAWYER-GWINN   SUNNY     43  36  75 CALM      30.20F
$$
MIZ001>003-009>011-084-021300-
WESTERN UPPER MICHIGAN

CITY           SKY/WX    TMP DP  RH WIND       PRES   REMARKS
HOUGHTON       PTSUNNY   48  32  53 S8        30.16F
6HR MIN TEMP:  41; 6HR MAX TEMP:  48;

COPPER HARBOR    N/A     55  30  38 SW9G18    30.15F
6HR MIN TEMP:  45; 6HR MAX TEMP:  55;

IRONWOOD       PTSUNNY   50  37  62 S9G16     30.12S
6HR MIN TEMP:  48; 6HR MAX TEMP:  54;

$$

ABBREVIATIONS USED IN REMARKS
   TC - TEMPERATURE IN CELSIUS
  WCI - WIND CHILL INDEX
   HX - HEAT INDEX
  VSB - VISIBILITY



USA.gov is the U.S. government's official web portal to all federal, state and local government web resources and services.